Location: Unspecified
(0.0000°N, 0.0000°E)
Time: 10:50:06
(UTC+00:00)

CBERS-1 - Pass Details

Date: 10 June 2023
Orbit: 767 x 776 km, 98.8° (Epoch: 21 September)

Event Time Altitude Azimuth Distance (km) Brightness Sun altitude
Rises 04:09:54 0° 344° (NNW) 3,238 7.4 -25.0°
Reaches altitude 10° 04:12:49 10° 327° (NNW) 2,315 6.4 -24.4°
Enters shadow 04:13:25 12° 322° (NW) 2,161 6.2 -24.2°
